Wetbulb
54.79 54.74 54.75 54.74 54.73 55.18 55.52 55.33 54.86 54.47 54.44 54.66 54.44 53.65 54.11 53.19 51.83 45.27 41.48 46.31 47.87 52.51 49.26 42.63 41.05 39.23 37.99 34.46 33.78 30.65 22.80 18.56 20.99 21.40 24.47 29.37 28.76 31.70 32.86 30.22 32.08 34.42 32.37 35.76 38.12
54.61 54.46 54.52 54.52 54.55 54.94 55.12 54.95 54.29 54.15 54.28 53.67 53.42 53.18 53.34 53.22 44.23 40.99 49.02 52.11 52.09 51.93 41.40 39.36 36.35 36.87 32.98 32.67 32.48 27.97 21.79 23.02 26.18 25.29 26.18 29.38 28.38 29.74 29.42 29.39 29.74 31.60 35.36 37.29 37.44
54.37 54.29 54.20 54.21 54.33 54.69 54.75 54.51 53.89 53.96 53.39 53.14 52.95 52.72 52.51 49.90 37.41 38.49 51.68 51.78 51.52 48.65 42.00 41.32 38.29 36.00 30.89 31.56 30.55 28.00 23.59 26.80 28.90 30.28 30.53 29.89 28.66 30.61 28.28 25.73 29.65 30.55 30.36 33.71 34.00
54.25 54.07 53.93 53.88 54.28 54.55 54.45 54.04 53.56 53.27 53.10 53.47 52.94 52.76 52.09 44.53 27.83 40.85 51.04 51.11 50.35 44.39 40.89 38.03 35.27 31.17 27.87 26.99 31.18 24.50 29.22 29.22 31.27 32.69 31.21 29.18 30.24 28.09 28.56 27.22 31.04 29.99 30.77 31.04 30.53
53.99 53.93 53.78 53.62 53.96 54.30 54.19 53.71 53.47 52.26 52.93 53.15 53.25 53.33 44.59 34.64 34.88 44.83 49.43 46.34 42.88 41.13 37.61 35.61 32.73 30.59 26.88 28.21 29.67 26.53 27.67 31.32 32.30 31.94 30.68 31.89 28.85 28.13 26.81 29.25 29.27 29.98 29.73 28.96 29.58
53.84 53.75 53.68 53.40 53.71 54.04 54.01 53.75 53.41 52.15 52.36 52.20 53.29 52.01 37.94 29.65 42.17 43.02 41.90 41.98 40.77 38.79 36.62 35.67 33.12 33.61 29.27 28.75 27.06 29.57 29.89 29.66 30.98 30.91 30.46 28.87 27.58 27.60 27.22 28.45 27.93 27.96 26.50 28.01 28.77
53.81 53.77 53.52 53.35 53.47 53.66 53.75 53.88 53.43 52.79 51.70 51.84 53.37 45.71 35.29 33.50 40.20 41.05 41.58 39.19 40.06 38.59 35.69 37.55 37.31 32.58 31.53 27.50 31.97 30.74 26.33 28.44 28.17 28.73 27.83 30.03 24.19 24.52 25.70 28.11 25.60 26.04 26.85 27.78 28.35
53.99 53.85 53.47 53.20 53.40 53.48 53.52 53.72 53.12 52.82 51.30 51.33 52.04 39.34 31.36 40.89 39.29 40.53 40.58 38.78 40.76 40.32 39.44 39.23 39.29 34.61 31.41 32.21 28.29 25.81 24.47 18.62 26.29 27.75 28.62 26.95 18.19 23.56 25.13 24.37 22.45 23.75 24.12 26.16 27.85
54.50 53.95 53.29 53.14 53.42 53.26 53.35 51.91 52.59 51.23 50.75 50.23 39.08 35.49 29.24 44.79 37.43 39.55 39.13 37.22 38.10 38.73 39.60 42.21 37.74 30.86 29.60 23.84 20.17 22.46 16.76 18.61 21.38 27.30 25.86 24.45 19.79 24.50 25.28 23.80 21.52 22.46 22.94 24.15 25.81
54.73 54.09 53.12 53.06 53.14 53.59 51.21 50.47 49.68 46.36 45.24 43.61 39.43 31.28 34.63 32.91 37.03 38.85 39.46 38.98 36.04 34.64 34.44 33.78 28.61 25.11 24.26 22.12 10.82 17.57 17.29 19.42 18.20 22.95 24.34 22.42 20.58 22.43 24.74 22.69 20.92 21.66 22.22 22.81 23.47
54.48 53.51 53.00 52.87 52.79 52.18 43.82 37.94 35.15 35.71 35.84 30.65 31.92 31.60 33.55 37.06 38.97 37.15 38.37 35.94 35.09 31.60 25.80 28.04 23.92 20.46 22.26 24.68 24.93 22.37 20.39 18.40 20.29 23.90 21.86 20.84 18.55 20.72 22.73 21.56 20.53 21.21 21.14 21.55 22.01
54.17 53.19 52.86 52.73 52.32 49.57 39.73 36.38 35.63 35.79 30.40 35.16 34.99 34.75 36.34 36.24 32.05 35.16 38.40 31.14 29.83 25.34 26.54 24.52 21.63 24.59 27.52 27.26 25.44 23.71 20.09 17.70 21.59 23.92 21.81 18.94 17.59 17.58 22.57 21.53 20.78 20.54 19.72 20.19 21.01
54.06 53.25 52.65 51.99 50.10 41.90 36.97 36.48 41.19 40.01 30.04 32.50 34.36 33.98 34.17 34.96 30.54 31.65 34.71 31.40 27.11 25.06 24.11 21.92 24.71 28.51 26.71 24.99 23.22 22.31 19.27 19.04 17.60 21.97 22.07 20.13 12.81 15.37 21.02 23.25 22.46 21.23 20.74 20.51 20.17
53.88 53.12 52.25 50.76 42.13 39.04 34.87 39.85 42.00 40.59 25.26 28.48 30.63 33.65 35.23 34.23 29.55 35.57 35.68 31.41 27.95 24.50 24.29 23.57 27.96 26.72 24.89 24.17 22.38 11.56 23.43 21.72 19.32 14.62 10.12 15.82 4.03 16.18 16.95 19.04 19.15 18.08 17.88 17.85 19.18
53.63 52.43 51.49 47.83 40.26 36.93 38.24 41.33 41.58 37.04 17.90 29.48 29.88 37.55 34.91 30.85 30.22 31.31 35.31 31.78 25.93 25.60 23.54 23.48 23.99 24.53 17.63 24.36 24.43 17.35 23.67 20.24 19.08 15.91 10.75 17.47 7.46 10.16 15.08 14.58 14.29 15.13 16.14 16.49 19.10
53.53 52.37 50.16 44.43 42.58 40.15 41.76 41.27 38.75 27.89 21.21 26.80 29.88 28.31 28.18 29.89 29.65 31.53 30.71 32.40 30.00 26.60 26.29 25.03 26.85 25.27 24.55 26.14 25.15 24.16 18.02 20.24 19.07 16.54 6.62 11.59 11.08 9.69 5.08 8.06 11.60 13.08 14.13 15.86 18.49
53.56 52.02 47.74 44.97 39.56 42.30 42.32 38.23 27.92 22.83 28.76 24.68 25.90 27.53 27.13 26.61 27.36 27.47 25.53 23.71 20.99 14.71 14.39 21.81 24.16 25.83 25.92 20.19 23.75 17.37 10.85 1.06 3.51 0.94 3.45 16.07 12.42 9.18 7.92 11.36 8.05 8.39 10.64 15.45 17.89
53.28 50.44 46.26 43.43 42.66 42.91 40.45 33.72 20.91 25.95 23.29 27.41 27.48 27.27 25.28 25.79 25.48 25.73 23.62 20.77 23.05 20.03 10.93 8.82 13.28 20.54 25.38 17.16 13.06 17.69 9.38 3.50 -1.43 3.43 5.75 16.62 8.29 10.83 9.25 9.70 4.72 9.73 10.43 16.04 16.11
50.43 44.65 43.54 42.13 43.14 41.94 36.74 25.13 25.26 26.04 28.06 26.25 27.20 23.46 23.02 25.04 24.07 23.26 21.08 20.60 22.52 20.05 11.91 3.80 11.15 24.77 23.82 23.29 20.75 17.48 13.70 18.59 4.43 8.38 4.92 9.31 15.62 13.57 16.50 14.39 8.18 5.63 13.45 13.20 14.79
44.85 43.13 42.29 42.48 42.41 40.18 32.29 28.13 25.63 28.26 28.78 28.15 25.83 24.51 18.06 18.96 20.72 21.04 20.86 23.56 23.65 24.93 22.37 14.09 10.27 22.86 23.97 22.88 22.68 20.47 21.33 8.79 9.15 -1.94 -1.37 9.07 10.00 10.15 10.89 6.74 8.09 5.81 11.00 13.20 14.95
43.32 37.40 39.71 41.55 41.03 37.02 26.56 27.31 26.89 29.06 30.46 26.93 25.57 23.75 22.09 19.37 20.74 18.90 22.22 23.85 24.06 22.70 23.82 18.21 14.34 17.71 20.76 8.04 9.30 14.74 14.36 15.68 13.69 11.27 1.39 3.29 7.26 9.95 6.47 7.61 6.28 8.12 12.25 12.88 14.05
40.18 33.90 39.37 39.49 31.75 30.29 28.51 28.74 30.32 27.58 30.61 28.17 27.83 26.20 21.72 20.78 18.49 21.33 22.82 22.56 26.30 25.32 21.22 22.90 12.31 9.28 8.93 10.59 18.49 18.05 7.36 11.80 4.62 5.24 9.61 9.56 7.40 14.40 8.61 4.07 11.03 11.61 13.02 14.00 15.64
34.99 34.01 40.54 38.64 30.11 28.21 28.76 27.67 28.20 26.74 27.88 27.23 26.80 26.96 21.32 19.72 17.36 18.91 23.75 25.56 27.08 25.00 20.46 21.87 17.06 7.48 13.54 16.08 19.48 10.57 15.06 15.61 11.07 11.40 4.91 4.00 9.42 11.19 12.18 13.78 12.45 11.22 12.32 12.97 14.90
37.35 32.08 33.48 35.11 34.01 29.81 27.43 27.97 26.99 29.82 28.45 29.08 27.41 26.66 19.54 16.49 20.22 15.63 22.55 26.54 27.83 26.92 30.32 26.56 15.69 10.11 9.97 11.35 2.92 6.52 10.25 14.64 12.62 -0.38 1.57 5.82 9.26 13.32 9.80 5.91 8.15 10.20 11.93 12.63 13.42
37.62 34.11 32.51 28.44 29.66 29.77 30.85 29.31 26.32 27.61 28.30 29.23 26.59 25.80 22.23 16.73 13.82 15.22 21.79 23.67 26.74 30.41 25.77 21.70 10.01 11.05 6.13 -0.31 1.88 6.92 12.47 9.65 6.82 2.34 5.49 5.04 3.64 11.88 8.33 3.19 0.39 6.18 10.69 10.96 10.62
34.40 32.74 32.28 30.51 31.54 30.09 31.60 30.77 27.77 27.42 26.45 25.36 25.04 24.92 22.57 19.52 22.03 18.96 21.69 23.47 23.39 23.99 23.40 20.81 11.38 11.79 11.72 2.25 -1.02 10.64 7.83 7.31 8.29 0.89 3.07 -4.39 2.69 2.99 1.66 6.27 4.33 4.86 5.66 7.16 9.20
37.12 37.88 36.13 32.75 30.95 30.34 30.84 31.46 29.10 29.89 30.00 28.78 27.42 25.27 21.94 23.57 24.70 24.10 24.96 25.08 24.95 19.44 20.25 15.40 14.22 8.42 7.93 7.23 10.44 7.76 7.95 3.16 1.42 -1.70 7.05 5.43 9.48 -5.20 2.91 2.56 0.34 3.95 5.65 6.51 6.59
MSLP
1019.91 1019.89 1019.49 1019.24 1018.96 1018.76 1018.49 1017.89 1017.40 1017.08 1016.91 1016.70 1016.67 1016.67 1016.58 1016.48 1016.42 1016.68 1016.69 1016.90 1016.62 1016.19 1016.06 1016.03 1015.95 1016.14 1016.28 1016.85 1017.17 1017.75 1018.91 1019.24 1018.52 1018.11 1017.55 1017.30 1017.20 1016.38 1016.15 1016.11 1015.67 1014.98 1014.66 1014.17 1013.92
1019.94 1019.67 1019.68 1019.35 1019.09 1018.54 1018.39 1017.87 1017.57 1017.14 1016.91 1016.79 1016.80 1016.61 1016.61 1016.71 1016.78 1017.00 1017.13 1016.68 1016.47 1016.25 1016.43 1016.67 1016.64 1016.65 1017.07 1017.44 1017.78 1018.32 1019.27 1018.67 1018.19 1017.96 1017.90 1017.77 1017.60 1017.05 1016.76 1016.29 1016.15 1015.32 1014.74 1014.71 1014.63
1020.05 1019.82 1019.78 1019.44 1018.97 1018.47 1018.38 1017.92 1017.56 1017.29 1017.07 1016.77 1016.74 1016.60 1016.66 1016.72 1017.05 1017.42 1017.06 1016.68 1016.46 1016.51 1016.63 1016.75 1016.94 1016.97 1017.57 1017.93 1018.42 1018.71 1018.81 1018.42 1018.06 1017.92 1018.03 1017.87 1017.53 1017.19 1017.26 1017.32 1017.14 1017.05 1016.31 1015.45 1015.45
1020.32 1019.84 1019.68 1019.45 1019.07 1018.48 1018.31 1017.94 1017.51 1017.33 1017.08 1017.06 1016.74 1016.57 1016.57 1016.77 1017.67 1017.33 1016.93 1016.69 1016.58 1016.53 1016.64 1016.86 1016.97 1017.54 1018.34 1018.64 1018.75 1018.91 1018.51 1018.51 1018.20 1017.92 1017.97 1017.70 1017.36 1017.58 1017.80 1018.30 1018.23 1018.21 1017.94 1017.24 1016.52
1020.23 1019.96 1019.76 1019.26 1018.98 1018.69 1018.35 1017.99 1017.60 1017.29 1017.10 1017.00 1016.84 1016.64 1016.57 1017.09 1017.59 1017.15 1017.05 1017.01 1016.78 1016.80 1017.10 1017.20 1017.48 1018.04 1018.68 1019.00 1019.03 1019.03 1018.76 1018.53 1018.24 1018.03 1017.82 1017.46 1017.37 1017.61 1018.24 1018.30 1018.26 1018.34 1018.16 1017.89 1017.60
1020.21 1020.04 1019.92 1019.15 1018.87 1018.56 1018.30 1018.10 1017.63 1017.28 1017.01 1017.01 1016.77 1016.58 1016.65 1017.28 1017.27 1017.28 1017.31 1017.24 1017.26 1017.23 1017.46 1017.51 1018.01 1018.31 1018.93 1019.17 1019.39 1019.13 1019.08 1018.90 1018.23 1018.10 1017.99 1017.93 1017.78 1017.68 1018.63 1018.96 1019.13 1019.18 1019.17 1019.01 1018.46
1020.10 1020.17 1019.74 1019.35 1018.64 1018.38 1018.04 1017.84 1017.60 1017.17 1016.97 1016.99 1016.78 1016.68 1016.97 1017.42 1017.21 1017.34 1017.36 1017.49 1017.42 1017.46 1017.69 1017.81 1018.07 1018.60 1019.02 1019.29 1019.39 1019.37 1019.43 1019.04 1018.48 1018.36 1018.24 1018.10 1018.42 1019.50 1019.92 1019.36 1019.51 1019.85 1019.77 1019.38 1019.14
1020.12 1020.11 1019.76 1019.15 1018.63 1018.25 1017.72 1017.47 1017.26 1017.08 1016.99 1016.88 1016.74 1016.75 1017.36 1017.26 1017.31 1017.28 1017.51 1017.57 1017.61 1017.52 1017.59 1017.87 1018.13 1018.71 1019.25 1019.44 1019.57 1019.86 1020.02 1019.88 1018.83 1018.59 1018.52 1018.85 1019.07 1020.11 1020.08 1019.81 1020.06 1020.15 1020.24 1020.04 1019.22
1020.24 1020.02 1019.69 1019.03 1018.62 1018.00 1017.53 1017.02 1017.06 1017.01 1017.05 1016.87 1016.98 1016.84 1017.45 1017.27 1017.49 1017.63 1017.71 1017.88 1017.83 1017.82 1017.81 1017.98 1018.33 1019.29 1019.71 1020.20 1020.69 1021.01 1020.94 1020.16 1019.03 1018.48 1018.79 1019.40 1019.73 1020.23 1020.31 1020.40 1020.60 1020.69 1020.72 1020.49 1019.75
1020.11 1020.02 1019.56 1019.07 1018.40 1018.01 1017.39 1016.88 1016.96 1017.17 1017.23 1017.06 1017.17 1017.50 1017.58 1017.75 1017.88 1017.88 1017.84 1017.96 1018.14 1018.26 1018.38 1018.71 1019.39 1019.98 1020.68 1021.22 1022.33 1021.53 1021.10 1020.35 1019.95 1019.04 1019.12 1019.59 1019.93 1020.58 1020.73 1020.92 1021.17 1021.35 1021.30 1021.06 1020.42
1019.98 1019.90 1019.53 1018.98 1018.47 1018.01 1017.65 1017.16 1017.85 1018.05 1017.72 1017.58 1017.62 1017.51 1017.69 1017.81 1017.88 1018.01 1018.16 1018.26 1018.48 1018.83 1019.49 1019.79 1020.37 1020.83 1021.08 1021.34 1021.49 1021.58 1021.37 1020.69 1020.04 1019.56 1019.71 1019.62 1020.05 1020.82 1021.09 1021.16 1021.41 1021.51 1021.77 1021.52 1020.90
1020.00 1019.82 1019.54 1019.08 1018.46 1018.20 1018.29 1018.93 1019.48 1019.98 1018.95 1018.00 1017.74 1017.78 1017.61 1017.77 1018.08 1018.26 1018.29 1018.82 1019.18 1019.82 1020.14 1020.55 1020.67 1020.60 1020.59 1020.81 1021.34 1021.11 1020.70 1020.17 1019.56 1019.54 1020.14 1019.98 1020.32 1020.68 1021.26 1021.47 1021.92 1022.07 1022.22 1021.98 1021.11
1019.86 1019.73 1019.62 1019.11 1018.53 1018.87 1019.53 1019.87 1019.94 1019.85 1019.60 1018.29 1017.80 1017.80 1017.88 1017.93 1018.45 1018.75 1018.92 1019.31 1019.81 1020.25 1020.70 1020.87 1020.64 1020.42 1020.52 1020.74 1021.05 1020.65 1020.54 1020.22 1020.28 1019.88 1019.99 1020.59 1020.66 1020.84 1021.03 1021.38 1021.66 1022.35 1022.80 1022.57 1021.93
1019.72 1019.74 1019.60 1019.09 1019.10 1019.80 1019.92 1019.82 1019.96 1019.90 1019.66 1018.44 1017.93 1017.84 1018.02 1018.05 1018.80 1018.91 1019.20 1019.67 1020.12 1020.66 1021.03 1021.07 1020.79 1020.73 1020.67 1021.01 1021.16 1020.71 1020.17 1020.20 1020.48 1020.87 1020.83 1021.00 1021.74 1021.09 1021.22 1021.61 1022.18 1022.74 1022.96 1022.75 1022.05
1019.64 1019.58 1019.68 1019.35 1019.76 1020.04 1020.37 1019.95 1020.02 1019.90 1019.53 1018.42 1017.99 1017.79 1018.18 1018.64 1019.29 1019.31 1019.69 1019.66 1020.33 1020.98 1021.62 1021.21 1021.21 1020.98 1021.34 1020.99 1021.22 1020.88 1020.34 1020.55 1020.70 1021.26 1021.60 1021.65 1022.65 1021.23 1021.82 1022.31 1022.92 1023.23 1023.26 1023.06 1022.45
1019.44 1019.53 1019.63 1019.75 1019.98 1020.11 1020.08 1020.08 1020.26 1020.07 1018.99 1018.14 1018.07 1018.17 1018.73 1019.05 1019.49 1019.55 1019.96 1020.30 1020.81 1021.27 1021.86 1021.76 1021.59 1021.56 1021.63 1021.15 1021.33 1021.39 1020.83 1020.86 1021.41 1021.90 1022.41 1021.98 1022.96 1022.16 1023.62 1024.58 1024.12 1024.20 1023.91 1023.46 1022.72
1019.21 1019.42 1019.61 1019.75 1020.22 1020.13 1019.97 1020.27 1020.61 1019.73 1018.63 1018.57 1018.64 1018.88 1019.33 1019.88 1020.13 1020.36 1021.04 1021.65 1022.28 1022.55 1023.02 1022.63 1022.08 1021.88 1022.29 1022.08 1021.70 1022.33 1022.11 1022.75 1022.94 1023.32 1022.66 1022.21 1023.19 1022.72 1024.14 1025.03 1025.63 1025.38 1024.68 1023.96 1023.16
1018.81 1019.31 1019.67 1019.89 1020.12 1020.15 1020.21 1020.63 1020.72 1019.00 1018.70 1018.60 1018.92 1019.43 1019.96 1020.70 1020.89 1021.03 1021.69 1022.83 1023.36 1023.83 1025.13 1024.95 1023.08 1022.68 1022.92 1023.14 1023.16 1023.63 1024.38 1025.82 1026.04 1025.01 1023.39 1022.02 1022.45 1022.91 1024.08 1025.12 1026.09 1026.08 1025.38 1024.44 1023.61
1018.67 1019.48 1019.81 1020.29 1020.26 1020.41 1020.58 1021.20 1019.61 1018.89 1018.59 1018.84 1019.35 1019.93 1020.70 1021.13 1021.37 1021.44 1022.06 1022.76 1023.43 1024.07 1025.32 1026.26 1024.38 1023.08 1023.40 1023.44 1023.60 1023.85 1024.86 1025.83 1026.25 1025.42 1024.65 1022.28 1022.25 1023.33 1024.42 1025.16 1025.82 1026.06 1025.32 1024.75 1024.10
1018.86 1019.69 1020.22 1020.44 1020.37 1020.61 1021.34 1020.87 1019.62 1019.14 1019.15 1019.23 1019.95 1020.72 1021.44 1021.66 1021.94 1021.87 1022.09 1022.56 1023.35 1023.90 1024.62 1026.29 1025.57 1023.62 1023.84 1024.02 1023.96 1024.13 1025.26 1026.17 1026.63 1026.29 1025.19 1022.92 1022.66 1023.43 1024.57 1025.51 1025.96 1025.92 1025.54 1025.01 1024.38
1018.89 1019.89 1020.76 1020.57 1020.36 1021.01 1021.64 1020.74 1019.86 1019.73 1019.61 1019.88 1020.29 1021.05 1021.90 1022.31 1022.41 1022.33 1022.28 1022.62 1023.05 1024.03 1024.54 1025.87 1026.71 1024.61 1024.64 1024.99 1025.17 1025.28 1025.83 1026.51 1027.03 1026.96 1026.85 1025.44 1023.21 1023.73 1025.51 1026.29 1026.36 1026.11 1025.78 1025.44 1024.88
1019.29 1020.53 1021.01 1020.87 1021.19 1021.62 1021.33 1020.58 1020.36 1020.14 1020.07 1020.08 1020.60 1021.22 1022.15 1022.76 1022.94 1022.76 1022.35 1022.19 1022.73 1023.41 1024.41 1025.33 1026.64 1026.36 1025.60 1025.78 1025.79 1025.98 1026.80 1027.46 1027.81 1027.69 1027.65 1027.21 1024.62 1024.06 1025.53 1026.19 1026.32 1026.30 1026.00 1025.67 1025.26
1019.79 1020.83 1021.18 1021.11 1021.10 1021.43 1021.03 1020.78 1020.58 1020.52 1020.15 1020.57 1020.98 1021.59 1022.69 1023.36 1023.62 1023.09 1022.53 1022.43 1022.70 1023.34 1023.79 1024.98 1026.20 1027.07 1025.90 1026.83 1026.39 1026.84 1027.28 1027.70 1028.22 1028.44 1028.42 1028.36 1025.09 1024.58 1025.66 1026.13 1026.54 1026.55 1026.28 1025.91 1025.65
1020.07 1020.73 1021.53 1021.35 1021.06 1021.03 1021.22 1020.88 1020.70 1020.61 1020.40 1020.75 1021.24 1021.93 1022.91 1023.75 1023.81 1023.54 1022.81 1022.70 1022.89 1023.37 1023.83 1024.54 1026.18 1027.36 1028.13 1027.95 1028.23 1027.91 1027.80 1028.07 1028.59 1029.42 1028.90 1028.38 1026.44 1025.10 1025.97 1027.06 1027.24 1026.75 1026.34 1026.22 1026.07
1019.76 1020.12 1020.64 1021.09 1020.97 1020.96 1021.26 1021.15 1020.94 1020.83 1020.78 1020.93 1021.40 1021.64 1022.31 1023.58 1023.87 1023.58 1022.92 1023.01 1023.29 1023.48 1024.23 1024.90 1026.37 1027.44 1027.60 1028.24 1028.64 1028.11 1027.94 1028.14 1028.83 1028.99 1029.35 1028.17 1028.32 1026.77 1027.36 1028.07 1028.46 1027.97 1027.39 1026.88 1026.61
1019.71 1020.40 1020.56 1020.68 1020.59 1020.83 1021.09 1020.78 1020.50 1020.74 1020.99 1020.82 1021.33 1021.34 1021.88 1022.58 1022.31 1022.58 1022.52 1022.75 1023.03 1023.96 1024.53 1025.35 1026.43 1027.50 1027.71 1027.94 1028.44 1028.19 1027.27 1027.75 1028.56 1028.93 1029.09 1028.92 1028.59 1027.83 1027.91 1028.48 1028.78 1028.74 1028.14 1027.53 1027.34
1019.86 1019.87 1019.94 1020.31 1020.55 1020.67 1020.41 1020.07 1020.24 1020.64 1020.40 1020.35 1020.81 1021.38 1021.91 1021.59 1021.87 1022.08 1022.31 1022.55 1023.03 1023.79 1024.80 1025.63 1026.67 1027.65 1027.76 1027.37 1027.48 1027.15 1025.59 1026.39 1027.31 1027.90 1028.37 1028.81 1028.53 1029.10 1029.37 1029.63 1029.77 1029.74 1029.34 1029.09 1028.18
Wind_Speed
12 13 14 14 14 15 17 16 16 13 9 8 6 5 5 3 6 4 8 6 8 12 7 6 8 7 4 3 3 3 4 2 4 3 4 4 6 4 3 4 5 4 4 5 7
12 12 14 14 15 15 17 16 15 11 9 8 6 5 4 4 3 8 2 10 12 13 5 6 7 5 4 3 3 5 3 6 3 1 4 4 4 4 4 4 5 7 6 8 9
12 13 14 15 16 16 18 16 13 10 8 6 6 5 4 2 2 3 7 12 12 10 1 2 1 2 5 3 4 1 5 1 3 4 1 4 4 4 5 3 5 13 13 11 9
12 12 14 15 16 17 18 15 12 8 7 7 5 4 3 0 2 3 10 15 11 7 2 3 4 4 4 3 3 3 4 2 5 3 5 7 3 3 4 5 6 8 11 10 10
12 13 14 14 16 17 18 15 11 7 7 7 5 5 1 6 2 4 11 11 4 3 4 3 6 3 3 3 4 4 4 4 9 10 7 6 5 4 2 9 6 7 10 12 13
11 13 15 14 16 17 17 16 11 7 5 5 5 2 2 4 1 4 7 6 5 4 5 5 4 3 2 2 1 3 5 9 7 5 4 7 5 1 5 7 9 12 12 11 11
11 14 14 16 15 17 18 16 14 8 4 3 4 2 5 4 1 4 6 2 3 2 3 3 3 3 1 3 2 4 5 7 3 3 5 10 1 6 8 7 9 12 13 11 12
11 13 14 15 17 18 18 17 14 6 4 2 2 2 3 1 1 3 4 2 3 1 4 3 5 3 3 5 7 6 1 5 4 4 2 6 7 3 7 9 10 13 12 14 13
11 12 14 16 18 19 18 16 7 3 3 2 1 3 2 1 3 4 3 2 3 3 4 3 4 3 4 4 5 4 8 7 7 3 3 4 9 3 5 10 10 11 12 14 15
10 12 14 17 18 20 17 6 3 1 2 1 2 4 2 1 3 4 3 3 4 2 3 6 5 3 4 6 3 12 7 5 11 4 1 3 10 4 6 9 10 11 13 14 15
8 12 14 15 18 18 8 4 5 3 7 1 3 4 2 4 0 4 2 1 3 7 3 4 5 2 4 3 7 7 9 14 10 6 5 3 3 4 5 7 12 13 14 15 17
9 12 14 16 18 11 3 5 2 1 5 2 1 1 2 3 3 5 5 4 4 3 3 5 2 2 5 6 7 10 13 8 7 4 4 2 5 3 3 4 9 12 14 16 17
7 9 13 16 7 6 3 1 3 2 1 2 1 2 2 3 3 4 4 2 3 3 3 3 1 4 5 7 8 8 5 4 8 11 3 3 6 2 2 3 10 10 11 12 15
6 7 11 17 4 2 2 4 1 1 5 3 2 1 2 3 2 2 3 1 3 2 1 4 3 4 9 5 4 5 4 10 16 3 3 3 6 5 1 4 12 14 14 15 17
5 4 7 8 2 2 3 2 0 1 4 1 1 3 1 2 1 2 3 3 3 1 5 2 4 5 4 5 2 9 13 14 7 3 3 3 2 6 3 5 15 15 15 16 15
6 2 4 2 1 1 2 3 1 7 7 1 2 1 1 4 4 5 4 6 1 3 1 4 2 4 5 7 1 11 5 1 4 2 2 4 4 5 2 5 12 14 15 16 16
7 3 2 2 2 1 3 3 5 4 2 3 1 2 2 3 3 6 5 7 4 7 6 6 2 1 2 6 1 9 6 6 7 6 5 1 2 7 4 4 4 12 15 13 14
9 6 3 2 3 1 2 5 1 2 5 1 2 1 1 2 2 3 3 2 2 4 3 3 8 3 4 3 4 5 5 4 5 4 7 5 6 5 6 5 4 7 10 12 14
12 2 2 2 3 2 4 2 8 5 3 3 1 4 3 1 2 1 2 3 3 4 5 3 8 1 1 1 2 3 5 2 1 3 3 3 1 4 5 8 7 9 12 12 13
4 3 2 2 3 3 4 7 4 1 2 3 4 3 3 3 1 1 2 3 4 2 3 4 5 3 2 1 3 4 1 3 1 5 6 6 5 3 6 13 13 12 11 12 12
4 3 1 1 1 4 4 7 3 1 3 3 3 3 4 3 3 2 3 2 3 4 4 5 4 5 3 1 4 3 3 2 1 1 2 6 8 4 4 7 9 8 10 9 11
2 2 2 2 3 1 3 3 2 2 2 2 2 2 5 4 3 3 3 2 5 6 6 5 5 6 7 5 3 3 5 4 4 4 2 3 9 3 5 7 4 8 10 9 9
3 2 1 2 3 3 3 3 2 2 2 3 3 2 2 4 1 3 2 2 6 4 6 6 1 5 9 2 0 2 3 3 3 3 4 1 8 0 2 4 6 5 6 7 9
3 2 1 0 1 3 1 4 3 2 1 2 3 3 4 0 1 2 2 3 5 2 8 6 3 7 7 8 2 2 3 4 4 3 3 7 13 10 8 6 8 8 6 4 7
1 1 1 3 4 4 2 1 1 3 2 3 2 6 6 3 2 4 2 2 1 4 3 4 3 3 6 5 1 5 5 4 6 6 5 5 5 16 9 7 5 5 8 6 6
4 3 1 2 2 6 6 4 9 4 5 4 5 1 6 5 7 6 6 5 5 2 4 1 2 1 5 2 4 6 5 6 4 3 7 3 9 4 5 5 7 9 10 10 7
1 1 0 5 3 4 4 4 4 5 5 1 5 3 4 9 5 1 3 5 5 7 5 4 4 3 7 2 5 7 8 6 2 3 6 3 7 4 5 6 3 5 6 7 9
Wind_Direction
7 1 359 357 354 354 349 353 354 357 6 17 21 22 17 47 56 32 44 359 2 349 358 338 11 358 39 65 50 121 62 243 253 201 260 352 359 297 272 260 332 279 296 246 307
0 359 353 351 349 354 349 352 355 5 19 30 26 28 22 8 70 52 320 352 352 356 9 13 344 352 54 35 22 81 123 230 222 307 271 286 272 302 305 284 271 286 266 333 338
356 353 349 348 350 353 348 350 355 0 10 24 32 35 5 354 56 331 329 339 341 357 334 221 323 37 60 19 9 122 206 221 270 255 310 266 258 235 291 290 259 317 327 349 12
347 347 346 346 348 350 346 346 354 352 359 5 21 17 347 253 4 282 332 342 349 352 20 0 29 55 70 45 0 350 282 228 272 268 308 283 290 282 244 325 336 6 354 350 5
345 343 341 346 347 345 343 341 344 340 347 355 7 358 130 51 32 298 345 350 13 10 43 46 49 63 55 323 343 191 265 306 285 285 258 273 244 232 353 330 28 5 11 353 347
341 339 334 343 344 342 339 333 331 327 337 339 358 351 99 78 252 341 357 1 8 38 30 44 79 80 159 255 231 272 304 288 287 285 283 313 281 230 45 347 6 5 360 351 339
340 333 335 336 342 337 335 328 316 305 315 329 359 84 63 158 116 345 28 341 329 88 84 52 73 64 53 307 333 290 313 310 310 321 4 336 21 46 331 358 8 355 351 349 337
337 329 332 335 336 333 333 326 309 276 271 317 18 81 97 284 250 10 357 340 25 24 92 91 71 73 26 312 5 343 339 345 292 24 14 60 284 4 1 15 7 355 345 340 345
325 326 331 337 335 332 333 331 308 242 249 339 72 110 117 98 16 329 29 337 329 37 39 89 68 75 15 28 8 6 293 280 309 72 14 80 292 2 7 25 1 357 348 338 337
323 326 334 338 336 332 333 340 337 77 17 41 53 69 18 322 303 336 4 28 74 78 42 44 45 52 35 45 302 292 304 283 286 294 18 274 273 346 351 30 3 358 344 338 334
325 327 334 339 334 338 352 33 20 308 46 277 149 122 114 296 133 359 19 45 22 54 48 3 40 320 284 223 244 264 263 271 272 274 302 246 253 318 333 28 7 359 346 336 332
321 329 332 335 332 342 46 63 65 218 308 197 131 78 120 128 44 339 28 70 49 61 353 17 262 220 282 276 269 270 278 278 274 243 300 280 256 226 297 53 23 355 343 335 330
314 326 333 334 342 36 56 30 317 73 262 295 176 140 147 110 120 319 27 77 84 82 39 175 335 335 311 293 319 292 243 262 290 315 250 293 295 184 201 181 3 2 343 338 334
302 328 342 331 53 305 17 348 0 64 59 233 216 165 64 98 93 356 22 156 50 85 5 243 343 315 303 279 30 308 241 299 307 295 254 106 286 218 256 282 4 356 351 344 339
276 320 355 30 248 29 315 10 325 55 3 137 150 139 39 79 13 46 22 349 108 78 83 282 5 329 335 286 142 256 307 297 277 189 23 184 47 271 5 319 341 349 347 341 338
240 260 3 46 22 316 20 14 343 43 258 156 81 358 123 23 10 329 36 41 106 102 257 262 280 166 248 309 198 299 330 309 43 83 341 238 140 276 325 294 322 334 339 342 342
208 165 91 119 331 58 54 24 24 155 19 259 196 42 77 355 37 33 35 14 42 36 7 335 229 326 7 316 144 23 360 355 359 8 239 216 212 259 194 255 279 317 325 336 344
168 127 65 53 90 45 42 38 146 236 225 108 90 102 179 356 51 23 91 100 59 73 79 50 324 50 331 151 207 27 92 114 279 325 291 273 236 287 199 216 251 299 298 341 349
122 70 83 68 76 32 74 71 222 210 157 156 109 73 322 296 143 100 57 139 156 156 138 79 279 107 307 311 143 311 45 168 234 226 293 252 265 110 216 325 339 334 346 345 348
108 106 71 103 110 74 72 251 238 64 148 78 172 125 226 266 30 89 201 165 157 148 150 190 318 190 201 320 26 87 50 62 27 350 311 306 289 250 318 327 329 339 345 347 347
81 93 350 128 133 66 176 236 281 292 275 116 198 172 218 232 189 222 194 165 181 139 118 131 116 285 41 356 173 4 47 38 207 181 245 305 281 193 218 295 305 317 341 348 346
90 103 325 292 75 119 225 206 302 223 273 96 127 126 180 175 195 245 219 216 165 153 137 189 148 275 238 257 221 120 151 148 113 298 268 288 276 167 196 250 297 336 346 351 355
90 115 339 321 196 204 294 291 258 221 195 179 188 122 95 191 339 216 224 106 146 157 161 180 202 340 343 358 6 124 184 177 144 57 226 243 279 182 279 329 7 348 349 348 2
123 149 329 212 271 177 174 231 254 306 119 202 126 109 101 101 345 257 229 183 178 153 135 125 138 173 197 227 154 318 202 173 132 119 243 228 290 306 333 348 337 340 350 12 11
105 202 130 195 227 152 84 190 347 272 245 207 231 216 169 183 332 234 218 157 192 173 95 122 195 186 247 237 243 243 219 199 176 206 176 254 259 293 321 321 291 297 341 10 25
141 160 306 133 138 153 178 224 194 186 194 236 228 220 169 189 191 214 159 190 193 169 147 54 257 112 289 351 259 277 235 198 200 203 276 343 286 213 296 315 359 349 351 355 1
199 141 207 147 171 167 207 205 214 159 243 22 205 150 202 235 175 220 103 79 151 151 157 120 121 59 273 327 324 329 217 193 198 212 154 202 242 352 325 336 308 325 346 348 340